sat.trackr.live / text

‹ back to catalog

STARLINK-30250

NORAD 57527 · 2023-115G

PAYLOAD ACTIVE UNKNOWN

§ Identity

Operator
Country
US
Launch date
2023-08-08
Launch site
AFWTR
Launch vehicle
Mass (kg)
RCS (m²)

Purposes: comms

External: N2YO · Heavens-Above · Gunter

§ Orbital elements

Epoch: 2026-05-24T19:54:28.767168Z

Period
94.27 min
Inclination
43.0009°
Eccentricity
0.0000717
Mean motion
15.27572829 rev/d
Perigee alt
482.6 km
Apogee alt
483.6 km
Semi-major
6,861.2 km
B*
5.4332e-6
RAAN
291.7904°
Arg perigee
284.8486°
Mean anomaly
75.2286°
Rev number
15,489

§ Raw data

STARLINK-302501 57527U 23115G   26144.82949962 -.00000112  00000+0  54332-5 0  99902 57527  43.0009 291.7904 0000717 284.8486  75.2286 15.27572829154896

JSON: /api/v1/satellites/57527 · /tle

For live sub-satellite position, see the globe view (requires WebGL).

§ Visibility from observer

Set your observer location to see the next 7 days of passes ≥ 10°. The values pass through the URL so the page stays shareable.

No JS? Fill the form by hand. The geolocation button needs JavaScript.